Sauk Centre, MN

7:49 AM CST on December 08, 2019 (GMT -0600)
Sauk Centre

Weather History for KD39 - October, 2019

Change the Weather History Date:

Wednesday, October 23, 2019

  Actual Average (KGHW) Record (KGHW)
Temperature  
Mean Temperature 34 °F -  
Max Temperature 41 °F 57 °F 77 °F (1963)
Min Temperature 28 °F 34 °F 19 °F (1981)
Degree Days  
Heating Degree Days 31    
Moisture  
Dew Point 30 °F    
Average Humidity 83    
Maximum Humidity 96    
Minimum Humidity 66    
Precipitation  
Precipitation 0.00 in - - ()
Sea Level Pressure  
Sea Level Pressure 29.91 in    
Wind  
Wind Speed 9 mph ()    
Max Wind Speed 17 mph    
Max Gust Speed 24 mph    
Visibility 10.0 miles    
Events Rain    
Averages and records for this station are not official NWS values.
T = Trace of Precipitation, MM = Missing Value Source: Averaged Metar Reports

Daily Weather History Graph

Daily Weather History Graph

Search for Another Location

Airport or City:

Astronomy

Oct. 23, 2019 Rise Set
Actual Time 7:46 AM CDT 6:20 PM CDT
Civil Twilight 7:16 AM CDT 6:50 PM CDT
Nautical Twilight 6:41 AM CDT 7:25 PM CDT
Astronomical Twilight 6:07 AM CDT 7:59 PM CDT
Moon 1:43 AM CDT (10/23) 4:31 PM CDT (10/23)
Length of Visible Light 11h 34m
Length of Day
10h 33m
Waning Crescent, 26% of the Moon is Illuminated
Oct 23
Waning Crescent
Oct 27
New
Nov 4
First Quarter
Nov 12
Full
Nov 19
Last Quarter

Hourly Weather History & Observations

Time (CDT) Temp. Windchill Dew Point Humidity Pressure Visibility Wind Dir Wind Speed Gust Speed Precip Events Conditions
12:16 AM 33.8 °F 28.6 °F 30.7 °F 89% 29.71 in 10.0 mi West 5.8 mph - N/A   Mostly Cloudy
12:35 AM 34.9 °F 28.3 °F 31.1 °F 86% 29.71 in 10.0 mi WNW 8.1 mph - N/A   Overcast
12:36 AM 34.9 °F 29.0 °F 31.1 °F 86% 29.71 in 10.0 mi West 6.9 mph - N/A   Overcast
12:55 AM 34.9 °F 29.0 °F 31.1 °F 86% 29.71 in 10.0 mi WNW 6.9 mph - N/A   Overcast
1:17 AM 34.7 °F 28.8 °F 31.1 °F 87% 29.71 in 10.0 mi West 6.9 mph - N/A   Overcast
1:36 AM 34.3 °F 27.7 °F 31.3 °F 89% 29.72 in 10.0 mi West 8.1 mph - N/A   Overcast
1:55 AM 34.2 °F 26.8 °F 30.9 °F 88% 29.72 in 10.0 mi West 9.2 mph - N/A   Overcast
1:56 AM 34.0 °F 26.0 °F 30.9 °F 89% 29.72 in 10.0 mi West 10.4 mph - N/A   Mostly Cloudy
2:15 AM 32.9 °F 25.9 °F 30.2 °F 90% 29.72 in 10.0 mi West 8.1 mph - N/A   Scattered Clouds
2:37 AM 32.2 °F 25.0 °F 30.0 °F 92% 29.72 in 10.0 mi West 8.1 mph - N/A   Clear
2:56 AM 31.8 °F 24.6 °F 29.3 °F 90% 29.73 in 10.0 mi West 8.1 mph - N/A   Clear
3:15 AM 31.3 °F 22.7 °F 29.3 °F 92% 29.73 in 10.0 mi West 10.4 mph - N/A   Clear
3:16 AM 31.3 °F 22.7 °F 29.3 °F 92% 29.73 in 10.0 mi West 10.4 mph - N/A   Clear
3:35 AM 31.8 °F 23.3 °F 29.1 °F 90% 29.73 in 10.0 mi West 10.4 mph - N/A   Clear
3:36 AM 31.8 °F 23.9 °F 29.1 °F 90% 29.74 in 10.0 mi West 9.2 mph - N/A   Clear
3:58 AM 31.1 °F 23.1 °F 28.9 °F 92% 29.74 in 10.0 mi West 9.2 mph - N/A   Clear
4:17 AM 30.9 °F 22.8 °F 28.8 °F 92% 29.75 in 10.0 mi West 9.2 mph - N/A   Clear
4:36 AM 30.9 °F 22.8 °F 28.9 °F 92% 29.76 in 10.0 mi West 9.2 mph - N/A   Clear
4:55 AM 31.1 °F 23.1 °F 29.1 °F 92% 29.77 in 10.0 mi West 9.2 mph - N/A   Clear
5:00 AM 31.1 °F 23.7 °F 28.9 °F 92% 29.77 in 10.0 mi West 8.1 mph - N/A   Clear
5:17 AM 31.1 °F 25.4 °F 28.9 °F 92% 29.77 in 10.0 mi West 5.8 mph - N/A   Clear
5:35 AM 30.6 °F 25.8 °F 29.1 °F 94% 29.78 in 10.0 mi West 4.6 mph - N/A   Clear
5:55 AM 30.0 °F 26.5 °F 28.8 °F 95% 29.79 in 10.0 mi West 3.5 mph - N/A   Clear
6:15 AM 29.7 °F 24.7 °F 28.4 °F 95% 29.79 in 10.0 mi West 4.6 mph - N/A   Clear
6:16 AM 29.7 °F 26.1 °F 28.4 °F 95% 29.79 in 10.0 mi West 3.5 mph - N/A   Clear
6:39 AM 29.1 °F 24.1 °F 28.2 °F 96% 29.80 in 10.0 mi West 4.6 mph - N/A   Clear
6:56 AM 29.1 °F 24.1 °F 27.9 °F 95% 29.80 in 10.0 mi West 4.6 mph - N/A   Clear
7:15 AM 28.9 °F 23.9 °F 27.5 °F 94% 29.80 in 10.0 mi WNW 4.6 mph - N/A   Clear
7:35 AM 29.7 °F 24.7 °F 27.9 °F 93% 29.80 in 10.0 mi West 4.6 mph - N/A   Clear
7:36 AM 29.7 °F 24.7 °F 27.9 °F 93% 29.80 in 10.0 mi West 4.6 mph - N/A   Clear
7:55 AM 28.9 °F 22.8 °F 27.5 °F 94% 29.81 in 10.0 mi West 5.8 mph - N/A   Clear
8:00 AM 28.9 °F 23.9 °F 27.5 °F 94% 29.81 in 10.0 mi West 4.6 mph - N/A   Clear
8:17 AM 29.3 °F 23.2 °F 28.0 °F 95% 29.82 in 10.0 mi West 5.8 mph - N/A   Clear
8:35 AM 30.2 °F 24.3 °F 28.4 °F 93% 29.82 in 10.0 mi WNW 5.8 mph - N/A   Clear
8:55 AM 31.1 °F 24.5 °F 29.1 °F 92% 29.83 in 10.0 mi West 6.9 mph - N/A   Clear
9:15 AM 32.0 °F 25.6 °F 29.7 °F 91% 29.84 in 10.0 mi WNW 6.9 mph - N/A   Clear
9:16 AM 32.0 °F 25.6 °F 29.8 °F 92% 29.84 in 10.0 mi WNW 6.9 mph - N/A   Clear
9:38 AM 33.1 °F 25.5 °F 30.2 °F 89% 29.85 in 10.0 mi WNW 9.2 mph - N/A   Clear
9:57 AM 34.2 °F 28.2 °F 31.1 °F 89% 29.86 in 10.0 mi NW 6.9 mph - N/A   Scattered Clouds
10:16 AM 34.7 °F 28.1 °F 31.1 °F 87% 29.86 in 10.0 mi NNW 8.1 mph - N/A   Overcast
10:35 AM 35.4 °F 27.8 °F 31.3 °F 85% 29.87 in 10.0 mi NW 10.4 mph - N/A   Overcast
10:36 AM 35.4 °F 28.4 °F 31.3 °F 85% 29.87 in 10.0 mi NW 9.2 mph - N/A   Overcast
10:55 AM 35.6 °F 28.6 °F 31.1 °F 84% 29.88 in 10.0 mi NW 9.2 mph - N/A   Mostly Cloudy
10:59 AM 36.3 °F 29.5 °F 31.5 °F 83% 29.88 in 10.0 mi NNW 9.2 mph - N/A   Mostly Cloudy
11:17 AM 36.1 °F 29.9 °F 31.1 °F 82% 29.90 in 10.0 mi NNW 8.1 mph - N/A   Overcast
11:36 AM 36.9 °F 29.1 °F 30.9 °F 79% 29.90 in 10.0 mi NW 11.5 mph - N/A   Overcast
11:55 AM 37.2 °F 29.1 °F 31.6 °F 80% 29.91 in 10.0 mi NW 12.7 mph - N/A   Overcast
11:56 AM 37.4 °F 29.8 °F 31.6 °F 80% 29.91 in 10.0 mi NW 11.5 mph - N/A   Overcast
12:15 PM 38.3 °F 31.4 °F 31.5 °F 76% 29.91 in 10.0 mi NW 10.4 mph - N/A   Mostly Cloudy
12:16 PM 38.5 °F 32.1 °F 31.6 °F 76% 29.91 in 10.0 mi NNW 9.2 mph - N/A   Mostly Cloudy
12:39 PM 39.4 °F 33.8 °F 31.8 °F 74% 29.91 in 10.0 mi WNW 8.1 mph - N/A   Mostly Cloudy
12:56 PM 39.7 °F 33.2 °F 31.6 °F 73% 29.91 in 10.0 mi NW 10.4 mph - N/A   Mostly Cloudy
1:15 PM 40.1 °F 32.4 °F 31.5 °F 71% 29.91 in 10.0 mi NNW 13.8 mph 18.4 mph N/A   Scattered Clouds
1:45 PM 40.8 °F 32.3 °F 31.3 °F 69% 29.91 in 10.0 mi NNW 17.3 mph - N/A   Clear
1:55 PM 40.8 °F 33.3 °F 31.6 °F 70% 29.91 in 10.0 mi NW 13.8 mph 19.6 mph N/A   Scattered Clouds
1:56 PM 40.5 °F 32.8 °F 31.6 °F 71% 29.91 in 10.0 mi NW 13.8 mph 19.6 mph N/A   Scattered Clouds
2:15 PM 40.1 °F 31.6 °F 31.8 °F 72% 29.93 in 10.0 mi NW 16.1 mph - N/A   Mostly Cloudy
2:38 PM 40.3 °F 32.6 °F 32.0 °F 72% 29.93 in 10.0 mi NW 13.8 mph 18.4 mph N/A   Overcast
2:55 PM 40.3 °F 32.6 °F 32.0 °F 72% 29.93 in 10.0 mi NW 13.8 mph - N/A   Overcast
2:56 PM 40.3 °F 32.6 °F 32.0 °F 72% 29.94 in 10.0 mi NW 13.8 mph - N/A   Overcast
3:15 PM 39.6 °F 31.3 °F 32.0 °F 74% 29.94 in 10.0 mi NW 15.0 mph - N/A   Overcast
3:20 PM 39.2 °F 30.5 °F 32.0 °F 75% 29.95 in 10.0 mi NW 16.1 mph - N/A   Overcast
3:37 PM 39.0 °F 30.3 °F 31.1 °F 73% 29.96 in 10.0 mi NNW 16.1 mph 23.0 mph N/A   Overcast
3:55 PM 38.3 °F 30.5 °F 31.1 °F 75% 29.97 in 10.0 mi NNW 12.7 mph - N/A   Overcast
4:15 PM 37.8 °F 29.8 °F 31.8 °F 79% 29.98 in 10.0 mi NW 12.7 mph - N/A   Overcast
4:35 PM 37.8 °F 29.4 °F 31.1 °F 77% 29.99 in 10.0 mi NNW 13.8 mph 18.4 mph N/A   Overcast
4:36 PM 37.8 °F 30.2 °F 30.9 °F 76% 29.99 in 10.0 mi NNW 11.5 mph 18.4 mph N/A   Overcast
4:59 PM 37.6 °F 28.8 °F 31.5 °F 79% 30.00 in 10.0 mi NW 15.0 mph 18.4 mph N/A   Overcast
5:16 PM 37.4 °F 29.8 °F 31.5 °F 79% 30.01 in 10.0 mi NW 11.5 mph - N/A   Overcast
5:36 PM 37.4 °F 29.3 °F 31.3 °F 79% 30.02 in 10.0 mi NNW 12.7 mph 16.1 mph N/A   Overcast
5:55 PM 37.2 °F 29.1 °F 30.9 °F 78% 30.03 in 10.0 mi NNW 12.7 mph - N/A   Overcast
5:56 PM 37.2 °F 29.1 °F 30.9 °F 78% 30.03 in 10.0 mi NNW 12.7 mph - N/A   Overcast
6:15 PM 37.4 °F 29.8 °F 31.3 °F 79% 30.04 in 10.0 mi NW 11.5 mph - N/A   Overcast
6:37 PM 37.4 °F 29.3 °F 31.1 °F 78% 30.05 in 10.0 mi NNW 12.7 mph - N/A   Overcast
6:55 PM 37.4 °F 28.9 °F 31.1 °F 78% 30.06 in 10.0 mi NNW 13.8 mph - N/A   Overcast
7:15 PM 37.4 °F 29.3 °F 31.3 °F 79% 30.08 in 10.0 mi NW 12.7 mph - N/A   Overcast
7:16 PM 37.4 °F 29.8 °F 31.1 °F 78% 30.08 in 10.0 mi NW 11.5 mph - N/A   Overcast
7:35 PM 37.2 °F 29.6 °F 30.9 °F 78% 30.09 in 10.0 mi NNW 11.5 mph - N/A   Overcast
7:59 PM 37.0 °F 28.9 °F 30.9 °F 79% 30.10 in 10.0 mi NW 12.7 mph - N/A   Overcast
8:16 PM 36.9 °F 28.2 °F 30.4 °F 77% 30.11 in 10.0 mi NW 13.8 mph 20.7 mph N/A   Overcast
8:36 PM 36.7 °F 28.9 °F 30.9 °F 80% 30.11 in 10.0 mi NW 11.5 mph - N/A   Overcast
8:55 PM 36.7 °F 28.4 °F 30.6 °F 78% 30.12 in 10.0 mi NW 12.7 mph - N/A   Overcast
8:56 PM 36.7 °F 28.0 °F 30.6 °F 78% 30.11 in 10.0 mi NW 13.8 mph - N/A   Overcast
9:15 PM 36.9 °F 28.7 °F 30.7 °F 79% 30.12 in 10.0 mi NW 12.7 mph - N/A   Overcast
9:19 PM 36.9 °F 28.7 °F 30.7 °F 79% 30.12 in 10.0 mi NW 12.7 mph 16.1 mph N/A   Overcast
9:37 PM 36.9 °F 29.1 °F 30.9 °F 79% 30.13 in 10.0 mi NW 11.5 mph 18.4 mph N/A   Overcast
9:55 PM 36.5 °F 28.7 °F 30.4 °F 78% 30.13 in 10.0 mi NW 11.5 mph - N/A   Overcast
10:15 PM 36.5 °F 28.2 °F 30.2 °F 78% 30.14 in 10.0 mi NW 12.7 mph 17.3 mph N/A   Overcast
10:16 PM 36.5 °F 28.2 °F 30.0 °F 77% 30.14 in 10.0 mi NW 12.7 mph 17.3 mph N/A   Overcast
10:35 PM 36.0 °F 28.5 °F 31.3 °F 83% 30.15 in 10.0 mi NW 10.4 mph - N/A Rain Light Rain
10:36 PM 35.8 °F 28.3 °F 31.3 °F 84% 30.15 in 10.0 mi NW 10.4 mph - N/A Rain Light Rain
10:59 PM 35.8 °F 26.5 °F 30.9 °F 82% 30.16 in 10.0 mi NW 15.0 mph - N/A   Overcast
11:16 PM 36.0 °F 26.3 °F 26.1 °F 67% 30.17 in 10.0 mi NW 16.1 mph 24.2 mph N/A   Overcast
11:36 PM 34.7 °F 24.7 °F 24.3 °F 66% 30.17 in 10.0 mi NW 16.1 mph - N/A   Mostly Cloudy
11:55 PM 33.8 °F 25.3 °F 24.4 °F 69% 30.17 in 10.0 mi NW 11.5 mph - N/A   Scattered Clouds